カタログに戻る

STARLINK-4096

運用中通信VLEO
NORAD 53160·PAYLOAD·🇺🇸 United States

打ち上げ Jul 17, 2022 から Cape Canaveral Space Force Station

Loading…

次のパス (今後24時間)

TLE

最新Source: CelesTrak SupGP

元期: Sep 14, 2026, 21:52 UTC

1 53160C 22083AE  26257.91159722 -.00050414  00000+0 -14894-2 0  2578
2 53160  53.1594  29.5000 0001290  73.4731 160.6892 15.34417753    10

AllMySatでSTARLINK-4096をリアルタイム追跡

Download on the App Store